Погода во Фрязино

Россия / Московская область     55°57′28″N   38°03′08″E
темп.,
°C
ветер,
м/с
пор.,
м/с
влажн.,
%
обл.,
%
осадки,
мм/ч
давл.,
гПа
погр.,
м
20 сентября, пн
пн2000:00+5в71471100 0.8 1019840
03:00+4всв81789100 4.7 1018762
06:00+4в81792100 4.3 1017895
09:00+4в71793100 7.0 1018970
12:00+4в71693100 1.6 10181008
15:00+5в71493100 2.4 10181027
18:00+5в71496100 0.5 10181012
21:00+5в71494100 2.3 10181046
21 сентября, вт
вт2100:00+5в61394100 1.8 1017960
03:00+5в61294100 3.4 1016966
06:00+5в61294100 2.5 1015861
09:00+5в51196100 3.7 1015758
12:00+6в51195100 0.6 1015693
15:00+6в4996100 1.0 1014646
18:00+5всв4997100 0.9 1014542
21:00+5всв4997100 4.6 1014495
22 сентября, ср
ср2200:00+5всв3897100 2.8 1013475
03:00+5св3797100 3.3 1012415
06:00+6св3797100 0.4 1012492
09:00+5св4896100 1.6 1012592
12:00+5св3695100 0.7 1013772
15:00+5св3696100 1.4 1013547
18:00+5всв2697100 0.8 1014432
21:00+5всв2598100 0.8 1014284
23 сентября, чт
чт2300:00+6ссв2398100 0.0 1014163
03:00+6ссв1498100 0.2 1014191
06:00+6ссв2499100 1.9 1014230
09:00+7вюв1499100 3.8 1014262
12:00+8ююв3794100 0.1 1015564
15:00+9юв4686100 0.5 1015711
18:00+8юв3788100 0.3 1015252
21:00+7ююв2492100 0.6 1015142
24 сентября, пт
пт2400:00+7ююв2590100 0.1 1015207
03:00+7ююв3793100 0.2 1014604
06:00+6ююв3693100 0.1 1013352
09:00+7ююв279275 0.1 1012533
12:00+8ю4878100 0.1 1011918
15:00+9ю466871 0.3 10091200
18:00+8ююв497886 0.2 1009478
21:00+7ююв398482 0.3 1008465